Regional Weather Roundup
Issued by NWS

Home | Current Version | Previous Version | Text Only | Print | Product List | Glossary Off
Versions: 1 2 3 4 5 6 7 8 9 10 11 12 13 14 15 16 17 18 19 20 21 22 23 24 25 26 27 28 29 30 31 32 33 34 35 36 37 38 39 40 41 42 43 44 45 46 47 48 49 50

000
ASUS43 KIND 280009
RWRIN

WEATHER ROUNDUP FOR INDIANA
NATIONAL WEATHER SERVICE INDIANAPOLIS IN
800 PM EDT WED AUG 27 2014

NOTE: "FAIR" INDICATES FEW OR NO CLOUDS BELOW 12,000 FEET WITH NO
SIGNIFICANT WEATHER AND/OR OBSTRUCTIONS TO VISIBILITY.

* - STATION DOES NOT REPORT WEATHER SUCH AS PRECIPITATION OR FOG.

+ - STATION NOT QUALITY CONTROLLED BY THE NATIONAL WEATHER SERVICE.
    USE DATA WITH CAUTION...ESPECIALLY DEWPOINT AND RELATIVE
    HUMIDITY OBSERVATIONS.

INZ001>003-010>013-019-020-280100-
NORTHWEST INDIANA

CITY           SKY/WX    TMP DP  RH WIND       PRES   REMARKS
GARY /AIRPORT/ MOCLDY    72  61  68 NE8       30.12F
KNOX *+        MOCLDY    69  60  74 N6        30.10S
LA PORTE +     CLOUDY    68  58  71 N8        30.11F
6HR MIN TEMP:  68; 6HR MAX TEMP:  78;

MICHIGAN CITY+ CLOUDY    68  57  68 NE5       30.11F
MONTICELLO +   CLEAR     74  64  69 N8        30.07S
RENSSELAER +   PTCLDY    72  64  78 NE8       30.09F
VALPARAISO     MOCLDY    69  59  70 NE7       30.11F
6HR MIN TEMP:  69; 6HR MAX TEMP:  80;


$$

LMZ046-743>745-280100-
SOUTHERN LAKE MICHIGAN

STATION/POSITION TIME  TEMP WIND        PRES
                       AIR  DIR/SP/G
                 (UTC) (F)  (DEG/KT/KT) (MB)
MICHIGAN CITY    0000   69   20/ 15/ 16   N/A

$$

INZ004-005-014>016-021>024-280100-
NORTH CENTRAL INDIANA

CITY           SKY/WX    TMP DP  RH WIND       PRES   REMARKS
GOSHEN         MOCLDY    74  62  66 N9        30.09F
6HR MIN TEMP:  74; 6HR MAX TEMP:  81;

LOGANSPORT +   PTCLDY    72  61  68 N6        30.08F
PERU/GRISSOM   PTCLDY    77  67  71 N5        30.07F
6HR MIN TEMP:  77; 6HR MAX TEMP:  82;

ROCHESTER +    PTCLDY    73  63  68 N8        30.09S
SOUTH BEND     CLOUDY    69  58  67 N8        30.11F
6HR MIN TEMP:  69; 6HR MAX TEMP:  81;

WARSAW +       PTCLDY    72  61  68 N6        30.09S

$$

INZ006>009-017-018-025>027-280100-
NORTHEAST INDIANA

CITY           SKY/WX    TMP DP  RH WIND       PRES   REMARKS
ANGOLA *+      CLEAR     72  61  68 VRB5      30.10R
AUBURN +       MOCLDY    73  57  56 N7        30.09R
FORT WAYNE     PTCLDY    75  62  64 N9        30.07F
6HR MIN TEMP:  75; 6HR MAX TEMP:  83;

HUNTINGTON +   PTCLDY    74  62  65 N3        30.07S
6HR MIN TEMP:  74; 6HR MAX TEMP:  81;


$$

INZ028-029-035-036-043>045-051>053-280100-
WEST CENTRAL INDIANA

CITY           SKY/WX    TMP DP  RH WIND       PRES   REMARKS
GREENCASTLE +  MOCLDY    79  72  78 N5        30.06S
LAFAYETTE      CLEAR     76  65  68 N6        30.06F
6HR MIN TEMP:  76; 6HR MAX TEMP:  84;

TERRE HAUTE    MOCLDY    80  73  79 NE6       30.04S
6HR MIN TEMP:  80; 6HR MAX TEMP:  90;


$$

INZ030>032-037>040-046>048-054>057-064-065-280100-
CENTRAL INDIANA

CITY           SKY/WX    TMP DP  RH WIND       PRES   REMARKS
CP ATTERBURY + CLOUDY    81  70  69 CALM      30.05R
COLUMBUS       PTCLDY    79  73  83 CALM      30.04R
FRANKFORT +    PTCLDY    77  69  76 N7        30.09S
INDIANAPOLIS   MOCLDY    81  69  67 N7        30.05R
6HR MIN TEMP:  81; 6HR MAX TEMP:  88;

-EAGLE CREEK   MOCLDY    80  69  69 N7        30.05S
6HR MIN TEMP:  80; 6HR MAX TEMP:  87;

KOKOMO *+      PTCLDY    77  64  65 N7        30.07F
MARION +       PTCLDY    76  60  57 N5        30.08S
MT COMFORT *+  PTCLDY    79  72  78 N8        30.07R
SHELBYVILLE    PTCLDY    81  72  74 NE3       30.05R
6HR MIN TEMP:  81; 6HR MAX TEMP:  90;

ZIONSVILLE +   PTCLDY    77  68  72 N7        30.08R
6HR MIN TEMP:  77; 6HR MAX TEMP:  85;


$$

INZ033-034-041-042-049-050-058-059-280100-
EAST CENTRAL INDIANA

CITY           SKY/WX    TMP DP  RH WIND       PRES   REMARKS
MUNCIE         PTCLDY    76  65  68 N9        30.07R
6HR MIN TEMP:  76; 6HR MAX TEMP:  85;


$$

INZ060-061-067>069-081>083-085>088-280100-
SOUTHWEST INDIANA

CITY           SKY/WX    TMP DP  RH WIND       PRES   REMARKS
EVANSVILLE     PTCLDY    88  74  63 NW5       30.02R HX  96
6HR MIN TEMP:  88; 6HR MAX TEMP:  96;

WASHINGTON +   PTCLDY    80  73  77 N6        30.02R
6HR MIN TEMP:  80; 6HR MAX TEMP:  90;


$$

INZ062-063-066-070>080-084-089>092-280100-
SOUTH CENTRAL AND SOUTHEAST INDIANA

CITY           SKY/WX    TMP DP  RH WIND       PRES   REMARKS
BLOOMINGTON    PTCLDY    81  74  79 N7        30.04F
6HR MIN TEMP:  81; 6HR MAX TEMP:  89;

SEYMOUR +      PTCLDY    86  63  45 N6        30.03

$$




USA.gov is the U.S. government's official web portal to all federal, state and local government web resources and services.